Key Lake,

8:40 AM CST on October 23, 2017 (GMT -0600)
Key Lake

Weather History for CPLS - February, 2014

Change the Weather History Date:

Friday, February 7, 2014

  Actual Average Record
Temperature  
Mean Temperature -18 °F -  
Max Temperature -3 °F - - ()
Min Temperature -33 °F - - ()
Degree Days  
Heating Degree Days 83    
Moisture  
Dew Point -24 °F    
Average Humidity 71    
Maximum Humidity 81    
Minimum Humidity 64    
Precipitation  
Precipitation 0.01 in - - ()
Sea Level Pressure  
Sea Level Pressure 30.11 in    
Wind  
Wind Speed 4 mph ()    
Max Wind Speed 9 mph    
Max Gust Speed -    
T = Trace of Precipitation, MM = Missing Value Source: Averaged Metar Reports

Daily Weather History Graph

Daily Weather History Graph

Search for Another Location

Airport or City:

Trip Planner

Search our weather history database for the weather conditions in past years. The results will help you decide how hot, cold, wet, or windy it might be!

Date:

Astronomy

Feb. 07, 2014 Rise Set
Actual Time 8:49 AM CST 5:44 PM CST
Civil Twilight 8:07 AM CST 6:26 PM CST
Nautical Twilight 7:22 AM CST 7:11 PM CST
Astronomical Twilight 6:37 AM CST 7:56 PM CST
Moon 11:43 AM CST (2/7) 3:19 AM CST (2/7)
Length of Visible Light 10h 18m
Length of Day
8h 54m
First Quarter, 59% of the Moon is Illuminated
Feb 7
First Quarter
Feb 14
Full
Feb 22
Last Quarter
Mar 1
New
Mar 8
First Quarter

Hourly Weather History & Observations

Time (CST) Temp. Windchill Dew Point Humidity Pressure Visibility Wind Dir Wind Speed Gust Speed Precip Events Conditions
12:00 AM -3.5 °F -17.1 °F -9.2 °F 76% 29.89 in - North 6.9 mph - N/A   Unknown
1:00 AM -4.4 °F -18.2 °F -10.7 °F 74% 29.91 in - North 6.9 mph - N/A   Unknown
2:00 AM -5.6 °F -18.2 °F -11.9 °F 74% 29.94 in - North 5.8 mph - N/A   Unknown
3:00 AM -11.6 °F -21.0 °F -16.6 °F 78% 29.95 in - NNE 3.5 mph - N/A   Unknown
4:00 AM - - - N/A% 29.99 in - Calm Calm - N/A   Unknown
5:00 AM - - - N/A% 30.01 in - West 2.3 mph - 0.01 in   Unknown
6:00 AM -25.6 °F - -31.9 °F 72% 30.01 in - Calm Calm - N/A   Unknown
7:00 AM -19.3 °F - -24.9 °F 76% 30.01 in - West 2.3 mph - N/A   Unknown
8:00 AM -27.2 °F - -34.1 °F 70% 30.04 in - Calm Calm - N/A   Unknown
9:00 AM -32.6 °F - -40.2 °F 67% 30.07 in - West 1.2 mph - N/A   Unknown
10:00 AM -20.9 °F -34.3 °F -25.1 °F 81% 30.08 in - West 4.6 mph - N/A   Unknown
11:00 AM - - - N/A% 30.09 in - WNW 4.6 mph - N/A   Unknown
12:00 PM -10.7 °F -22.3 °F -17.3 °F 72% 30.10 in - NNW 4.6 mph - N/A   Unknown
1:00 PM -9.0 °F -22.3 °F -16.6 °F 69% 30.12 in - NNW 5.8 mph - N/A   Unknown
2:00 PM -7.6 °F -20.6 °F -15.9 °F 67% 30.14 in - NNW 5.8 mph - N/A   Unknown
3:00 PM -7.4 °F -24.4 °F -16.8 °F 64% 30.16 in - NNW 9.2 mph - N/A   Unknown
4:00 PM -8.1 °F -22.7 °F -17.3 °F 64% 30.19 in - NNW 6.9 mph - N/A   Unknown
5:00 PM -9.6 °F -21.1 °F -17.5 °F 68% 30.23 in - NNW 4.6 mph - N/A   Unknown
6:00 PM -14.8 °F -24.8 °F -21.3 °F 73% 30.25 in - NNW 3.5 mph - N/A   Unknown
7:00 PM -23.1 °F -34.2 °F -29.7 °F 71% 30.27 in - NW 3.5 mph - N/A   Unknown
8:00 PM -28.8 °F - -36.9 °F 65% 30.30 in - WNW 2.3 mph - N/A   Unknown
9:00 PM -31.2 °F - -37.8 °F 70% 30.32 in - Calm Calm - N/A   Unknown
10:00 PM -33.3 °F - -40.5 °F 68% 30.32 in - NNW 1.2 mph - N/A   Unknown
11:00 PM -31.2 °F - -37.1 °F 73% 30.32 in - WNW 2.3 mph - N/A   Unknown